This is the latest recevied weather packets stored in our database for station/object KD8UYA. If no packets are shown the sender has not sent any weather packets the latest 10 day(s).
| Time | Temp. | Humidity | Pressure | Rain* | Wind** | Luminosity | Snow |
|---|---|---|---|---|---|---|---|
| 1778197530 | 11.67° C | 52% | 1010.7 hPa | 0 mm | - | - | - |
| 1778196622 | 11.67° C | 51% | 1010.7 hPa | 0 mm | - | - | - |
| 1778195717 | 11.67° C | 50% | 1010.6 hPa | 0 mm | - | - | - |
| 1778194818 | 12.22° C | 49% | 1010.8 hPa | 0 mm | - | - | - |
| 1778193915 | 12.22° C | 49% | 1010.8 hPa | 0 mm | - | - | - |
| 1778193015 | 12.78° C | 49% | 1010.7 hPa | 0 mm | - | - | - |
| 1778192113 | 12.22° C | 49% | 1010.8 hPa | 0 mm | - | - | - |
| 1778191213 | 12.22° C | 52% | 1010.7 hPa | 0 mm | - | - | - |
| 1778190312 | 11.67° C | 56% | 1010.6 hPa | 0 mm | - | - | - |
| 1778189420 | 11.67° C | 57% | 1010.5 hPa | 0 mm | - | - | - |
| 1778188511 | 11.67° C | 58% | 1010.5 hPa | 0 mm | - | - | - |
| 1778187611 | 11.67° C | 61% | 1010.3 hPa | 0 mm | - | - | - |
| 1778186710 | 11.67° C | 61% | 1010.2 hPa | 0 mm | - | - | - |
| 1778185809 | 11.67° C | 57% | 1010 hPa | 0 mm | - | - | - |
| 1778184909 | 12.22° C | 54% | 1010 hPa | 0 mm | - | - | - |
| 1778184011 | 11.67° C | 57% | 1009.9 hPa | 0 mm | - | - | - |
| 1778183121 | 12.22° C | 52% | 1010 hPa | 0 mm | - | - | - |
| 1778182207 | 12.22° C | 55% | 1010.2 hPa | 0 mm | - | - | - |
| 1778181304 | 12.22° C | 53% | 1010.2 hPa | 0 mm | - | - | - |
| 1778180476 | 12.22° C | 57% | 1010.2 hPa | 0 mm | - | - | - |
| 1778179502 | 12.22° C | 54% | 1010.4 hPa | 0 mm | - | - | - |
| 1778178676 | 12.22° C | 56% | 1010.4 hPa | 0 mm | - | - | - |
| 1778177761 | 12.78° C | 55% | 1010.5 hPa | 0 mm | - | - | - |
| 1778176864 | 11.67° C | 58% | 1010.5 hPa | 0 mm | - | - | - |
| 1778175963 | 11.67° C | 57% | 1010.5 hPa | 0 mm | - | - | - |
* Rain latest hour (hover to see other rain measurements)
** Current wind speed in m/s (hover to see current wind gust speed)